Weather Roundup
Issued by NWS

Home | Current Version | Previous Version | Graphics & Text | Print | Product List | Glossary Off
Versions: 1 2 3 4 5 6 7 8 9 10 11 12 13 14 15 16 17 18 19 20 21 22 23 24 25 26 27 28 29 30 31 32 33 34 35 36 37 38 39 40 41 42 43 44 45 46 47 48 49 50

000
NZUS93 KARX 280710
HRRWXR

CURRENT HOURLY OBSERVATIONS ACROSS
MUCH OF THE UPPER MISSISSIPPI VALLEY
NATIONAL WEATHER SERVICE LA CROSSE WI
100 AM CST SUN DEC 28 2014


...SOUTHEAST MINNESOTA...


CITY           SKY/WX    TMP DP  RH WIND       PRES   REMARKS
ROCHESTER      CLEAR      6   3  87 SW9       30.10S WCI  -8
ROCHESTER/MAYO FAIR      12   8  82 W6        30.10F WCI   3
WINONA         CLEAR     10   9  92 CALM      30.15S
AUSTIN         CLEAR      9   7  92 SW3       30.11S
ALBERT LEA     CLEAR     12  10  92 W5        30.10F WCI   4
DODGE CENTER   PTCLDY     7   3  85 SW9       30.08F WCI  -7
PRESTON        CLEAR     10   7  86 W10       30.11S WCI  -4
OWATONNA       CLEAR      7   3  85 S7        30.10F WCI  -5
FARIBAULT      CLEAR      7   3  85 S3        30.10F
$$

...ELSEWHERE IN MINNESOTA...


CITY           SKY/WX    TMP DP  RH WIND       PRES   REMARKS
MINNEAPOLIS    CLOUDY    12   7  80 SW7       30.09F WCI   1
INTNL FALLS    PTCLDY     5   0  79 NW8       30.01S WCI  -8
DULUTH         FLURRIES  18  11  74 W8        29.96S WCI   8
RED WING       CLEAR      3   0  85 CALM      30.11S
REDWOOD FALLS  CLEAR     10   5  80 SW10      30.08F WCI  -4
MANKATO        CLEAR     10   3  72 S6        30.10F WCI   1
WORTHINGTON    CLEAR     12 -29  14 SW14      30.07F WCI  -3
FAIRMONT       CLEAR     10   5  79 SW6       30.10F WCI   1
$$

...SOUTHWEST WISCONSIN...


CITY           SKY/WX    TMP DP  RH WIND       PRES   REMARKS
LA CROSSE      CLEAR     15   8  73 S8        30.14F WCI   4
PRAIRIE DU CHI CLEAR     19  12  74 CALM      30.16F
BOSCOBEL       CLEAR     17  10  74 SW7       30.16F WCI   8
LONE ROCK      CLEAR     23  15  71 W9        30.14F WCI  13
PLATTEVILLE    CLEAR     19  16  88 CALM      30.13F
FORT MC COY    CLEAR     17  11  78 W6        30.12F WCI   8
CAMP DOUGLAS   CLEAR     15  15  99 W5        30.10S WCI   8
VIROQUA        FAIR      15  12  88 W6        30.09F WCI   7
WIS DELLS      CLEAR     20  17  86 W7        30.09F WCI  11
$$

...ELSEWHERE IN WISCONSIN...


CITY           SKY/WX    TMP DP  RH WIND       PRES   REMARKS
MILWAUKEE      PTCLDY    29  19  66 W12       30.07S WCI  19
MADISON        CLEAR     23  17  78 W7        30.10F WCI  15
GREEN BAY      CLEAR     24  19  81 W12       30.05F WCI  13
EAU CLAIRE     CLEAR     10   4  76 SW6       30.09S WCI   0
BLACK RVR FLS  FAIR      12   9  89 SW3       30.11F
MEDFORD        CLEAR     10   8  88 W7        30.01S WCI   0
WAUSAU         PTCLDY    14  11  87 W8        30.03S WCI   3
WIS RAPIDS     CLEAR     18  12  77 W8        30.08F WCI   8
MARSHFIELD     CLEAR     13   9  84 W6        30.05S WCI   4
RICE LAKE      MOCLDY    11   7  85 CALM      30.06F
$$

...NORTHEAST IOWA...


CITY           SKY/WX    TMP DP  RH WIND       PRES   REMARKS
DECORAH        CLEAR     14  10  85 W5        30.12S WCI   6
MASON CITY     CLEAR     13   8  81 W13       30.14F WCI  -2
CHARLES CITY   CLEAR     12   9  85 W7        30.14F WCI   2
OELWEIN        CLEAR     16  14  93 W7        30.15F WCI   6
$$

...ELSEWHERE IN IOWA...


CITY           SKY/WX    TMP DP  RH WIND       PRES   REMARKS
DES MOINES     CLEAR     18  13  80 CALM      30.20S
IOWA CITY      CLEAR     19  15  84 SW3       30.22R
FORT DODGE     CLEAR     10   7  85 CALM      30.15F
$$

...NORTHERN ILLINOIS...


CITY           SKY/WX    TMP DP  RH WIND       PRES   REMARKS
CHICAGO-OHARE  CLOUDY    30  23  75 NW13      30.09S WCI  20
CHICAGO-MIDWAY CLOUDY    32  24  72 W13       30.11R WCI  22
MOLINE         CLEAR     23  15  71 W8        30.19S WCI  14
ROCKFORD       CLOUDY    27  19  72 NW14      30.14S WCI  16
PEORIA         CLOUDY    29  20  69 NW10      30.20R WCI  20
$$

NOTE: "FAIR" INDICATES FEW OR NO CLOUDS BELOW 12,000 FEET WITH NO
SIGNIFICANT WEATHER AND/OR OBSTRUCTIONS TO VISIBILITY. WIND
SPEEDS ARE IN MILES-PER-HOUR.



USA.gov is the U.S. government's official web portal to all federal, state and local government web resources and services.